JST800 YSSY-YBBN

Flight info

Callsign JST800
Flight time N/A
Altitude 39000
Route OLSEM Y193 BANDA H252 GOMOL
Aircraft A20N/M-SDE2E3FGHIRWXY/LB1

Departure

Time 2026-05-01 08:35
Airport Sydney Kingsford Smith International Airport (YSSY)

Arrival

Time N/A
Airport Brisbane International Airport (YBBN)
Time Latitude Longitude Altitude Speed Heading
2026-05-01 08:02 -33.93562 151.17775 34 ft 0 kts 280°
2026-05-01 08:13 -33.93563 151.17781 32 ft 3 kts 280°
2026-05-01 08:13 -33.93561 151.17820 33 ft 2 kts 200°
2026-05-01 08:14 -33.93559 151.17821 30 ft 0 kts 194°
2026-05-01 08:14 -33.93560 151.17820 33 ft 2 kts 194°
2026-05-01 08:14 -33.93554 151.17827 32 ft 0 kts 206°
2026-05-01 08:14 -33.93576 151.17813 34 ft 0 kts 206°
2026-05-01 08:16 -33.93574 151.17815 34 ft 0 kts 194°
2026-05-01 08:18 -33.93625 151.17814 34 ft 17 kts 185°
2026-05-01 08:19 -33.93932 151.17787 27 ft 24 kts 169°
2026-05-01 08:19 -33.94088 151.17828 26 ft 24 kts 168°
2026-05-01 08:19 -33.94252 151.17870 28 ft 24 kts 169°
2026-05-01 08:19 -33.94380 151.17894 27 ft 11 kts 167°
2026-05-01 08:20 -33.94469 151.17886 27 ft 20 kts 225°
2026-05-01 08:20 -33.94576 151.17809 28 ft 15 kts 165°
2026-05-01 08:20 -33.94679 151.17835 25 ft 17 kts 168°
2026-05-01 08:20 -33.94739 151.17851 25 ft 18 kts 166°
2026-05-01 08:21 -33.94833 151.17878 24 ft 18 kts 169°
2026-05-01 08:21 -33.94948 151.17905 25 ft 6 kts 167°
2026-05-01 08:21 -33.94974 151.17912 29 ft 7 kts 168°
2026-05-01 08:21 -33.95068 151.17937 29 ft 15 kts 160°
2026-05-01 08:22 -33.95118 151.18028 29 ft 14 kts 84°
2026-05-01 08:22 -33.95099 151.18131 28 ft 14 kts 78°
2026-05-01 08:22 -33.95078 151.18251 28 ft 16 kts 78°
2026-05-01 08:22 -33.95072 151.18283 28 ft 0 kts 78°
2026-05-01 08:23 -33.95055 151.18378 29 ft 8 kts 77°
2026-05-01 08:23 -33.95046 151.18427 29 ft 0 kts 79°
2026-05-01 08:23 -33.95045 151.18460 30 ft 2 kts 95°
2026-05-01 08:24 -33.95071 151.18528 30 ft 8 kts 150°
2026-05-01 08:24 -33.95126 151.18562 30 ft 9 kts 148°
2026-05-01 08:24 -33.95164 151.18597 29 ft 12 kts 138°
2026-05-01 08:24 -33.95235 151.18669 29 ft 14 kts 143°
2026-05-01 08:25 -33.95323 151.18721 28 ft 15 kts 165°
2026-05-01 08:25 -33.95439 151.18752 28 ft 19 kts 168°
2026-05-01 08:25 -33.95570 151.18787 27 ft 19 kts 168°
2026-05-01 08:25 -33.95700 151.18820 29 ft 19 kts 166°
2026-05-01 08:26 -33.95814 151.18852 29 ft 19 kts 168°
2026-05-01 08:26 -33.95933 151.18882 30 ft 20 kts 168°
2026-05-01 08:26 -33.96063 151.18915 29 ft 22 kts 168°
2026-05-01 08:26 -33.96210 151.18952 29 ft 23 kts 168°
2026-05-01 08:27 -33.96366 151.18996 27 ft 23 kts 168°
2026-05-01 08:27 -33.96508 151.19030 23 ft 26 kts 168°
2026-05-01 08:27 -33.96688 151.19075 23 ft 27 kts 173°
2026-05-01 08:27 -33.96873 151.19082 22 ft 27 kts 168°
2026-05-01 08:28 -33.97056 151.19129 26 ft 27 kts 168°
2026-05-01 08:28 -33.97124 151.19259 24 ft 21 kts 76°
2026-05-01 08:28 -33.97121 151.19275 28 ft 0 kts 81°
2026-05-01 08:29 -33.97084 151.19360 26 ft 19 kts 36°
2026-05-01 08:29 -33.96994 151.19357 25 ft 14 kts 347°
2026-05-01 08:30 -33.96988 151.19356 23 ft 0 kts 347°
2026-05-01 08:34 -33.96947 151.19345 23 ft 35 kts 347°
2026-05-01 08:34 -33.96376 151.19193 29 ft 134 kts 347°
2026-05-01 08:34 -33.95237 151.18924 298 ft 191 kts 348°
2026-05-01 08:35 -33.94176 151.18658 735 ft 206 kts 349°
2026-05-01 08:35 -33.92719 151.18610 1556 ft 221 kts
2026-05-01 08:35 -33.91924 151.18793 2159 ft 223 kts 14°
2026-05-01 08:35 -33.90807 151.19302 3112 ft 223 kts 26°
2026-05-01 08:36 -33.89537 151.20333 4289 ft 208 kts 40°
2026-05-01 08:36 -33.88551 151.21477 4972 ft 205 kts 45°
2026-05-01 08:36 -33.87498 151.22803 5404 ft 229 kts 46°
2026-05-01 08:36 -33.86380 151.24218 5497 ft 235 kts 46°
2026-05-01 08:37 -33.85456 151.25384 5327 ft 235 kts 47°
2026-05-01 08:37 -33.84582 151.27039 5087 ft 236 kts 66°
2026-05-01 08:37 -33.84046 151.28885 4842 ft 236 kts 71°
2026-05-01 08:37 -33.83563 151.30792 4579 ft 236 kts 71°
2026-05-01 08:38 -33.83196 151.32255 4390 ft 235 kts 71°
2026-05-01 08:38 -33.82750 151.33933 4161 ft 234 kts 66°
2026-05-01 08:38 -33.81914 151.35510 4226 ft 235 kts 52°
2026-05-01 08:38 -33.80921 151.36996 5135 ft 239 kts 51°
2026-05-01 08:39 -33.79828 151.38592 6118 ft 253 kts 50°
2026-05-01 08:39 -33.78712 151.40220 7234 ft 262 kts 50°
2026-05-01 08:39 -33.77539 151.41929 8397 ft 268 kts 50°
2026-05-01 08:39 -33.76346 151.43668 9578 ft 273 kts 49°
2026-05-01 08:40 -33.73981 151.47109 11110 ft 306 kts 49°
2026-05-01 08:40 -33.72600 151.49119 11841 ft 322 kts 50°
2026-05-01 08:40 -33.71162 151.51215 12826 ft 330 kts 50°
2026-05-01 08:41 -33.69711 151.53330 13842 ft 336 kts 51°
2026-05-01 08:41 -33.68280 151.55414 14719 ft 343 kts 51°
2026-05-01 08:41 -33.67094 151.57141 15402 ft 348 kts 51°
2026-05-01 08:41 -33.65544 151.59394 16297 ft 354 kts 51°
2026-05-01 08:42 -33.63963 151.61694 17209 ft 360 kts 51°
2026-05-01 08:42 -33.62335 151.64008 18104 ft 366 kts 48°
2026-05-01 08:42 -33.60433 151.66012 18909 ft 374 kts 35°
2026-05-01 08:42 -33.58122 151.67403 19666 ft 380 kts 20°
2026-05-01 08:43 -33.55628 151.68333 20495 ft 383 kts 16°
2026-05-01 08:43 -33.53061 151.69156 21316 ft 386 kts 15°
2026-05-01 08:43 -33.50482 151.69950 22097 ft 389 kts 14°
2026-05-01 08:43 -33.47825 151.70760 22896 ft 392 kts 14°
2026-05-01 08:44 -33.45189 151.71561 23667 ft 396 kts 14°
2026-05-01 08:44 -33.42688 151.72320 24326 ft 399 kts 14°
2026-05-01 08:44 -33.40395 151.73016 24827 ft 403 kts 14°
2026-05-01 08:44 -33.37631 151.73855 25421 ft 408 kts 14°
2026-05-01 08:45 -33.34902 151.74682 25977 ft 412 kts 14°
2026-05-01 08:45 -33.32143 151.75518 26536 ft 416 kts 15°
2026-05-01 08:45 -33.29281 151.76385 27084 ft 420 kts 15°
2026-05-01 08:45 -33.26471 151.77235 27618 ft 424 kts 15°
2026-05-01 08:46 -33.23602 151.78103 28145 ft 427 kts 15°
2026-05-01 08:46 -33.20710 151.78977 28669 ft 431 kts 15°
2026-05-01 08:46 -33.17787 151.79859 29194 ft 434 kts 15°
2026-05-01 08:46 -33.14852 151.80745 29689 ft 438 kts 15°
2026-05-01 08:47 -33.11886 151.81640 30193 ft 441 kts 15°
2026-05-01 08:47 -33.08894 151.82541 30653 ft 444 kts 15°
2026-05-01 08:47 -33.06007 151.83411 31136 ft 444 kts 15°
2026-05-01 08:47 -33.02994 151.84317 31660 ft 445 kts 15°
2026-05-01 08:48 -33.00252 151.85141 32124 ft 444 kts 15°
2026-05-01 08:48 -32.97256 151.86041 32633 ft 444 kts 15°
2026-05-01 08:48 -32.94261 151.86941 33135 ft 444 kts 15°
2026-05-01 08:48 -32.91264 151.87840 33613 ft 444 kts 15°
2026-05-01 08:49 -32.88383 151.88704 34081 ft 443 kts 15°
2026-05-01 08:49 -32.85404 151.89597 34458 ft 445 kts 15°
2026-05-01 08:49 -32.82412 151.90493 34809 ft 446 kts 14°
2026-05-01 08:49 -32.79471 151.91374 35169 ft 447 kts 14°
2026-05-01 08:50 -32.76686 151.92206 35505 ft 447 kts 14°
2026-05-01 08:50 -32.73737 151.93088 35866 ft 447 kts 14°
2026-05-01 08:50 -32.70770 151.93974 36217 ft 447 kts 14°
2026-05-01 08:50 -32.67879 151.94837 36551 ft 448 kts 13°
2026-05-01 08:51 -32.65018 151.95690 36882 ft 449 kts 13°
2026-05-01 08:51 -32.61987 151.96593 37209 ft 450 kts 13°
2026-05-01 08:51 -32.59077 151.97460 37519 ft 450 kts 13°
2026-05-01 08:51 -32.56097 151.98347 37828 ft 451 kts 13°
2026-05-01 08:52 -32.53157 151.99222 38111 ft 451 kts 12°
2026-05-01 08:52 -32.50107 152.00129 38427 ft 452 kts 12°
2026-05-01 08:52 -32.47058 152.01034 38733 ft 452 kts 12°
2026-05-01 08:52 -32.44103 152.01911 38923 ft 454 kts 12°
2026-05-01 08:53 -32.38642 152.03531 38946 ft 455 kts 12°
2026-05-01 08:53 -32.32583 152.05326 38943 ft 455 kts 12°
2026-05-01 08:54 -32.26629 152.07087 38943 ft 455 kts 12°
2026-05-01 08:54 -32.20858 152.08791 38939 ft 455 kts 12°
2026-05-01 08:55 -32.15310 152.10428 38941 ft 457 kts 12°
2026-05-01 08:55 -32.09162 152.12239 38941 ft 457 kts 12°
2026-05-01 08:56 -32.04194 152.13701 38940 ft 457 kts 12°
2026-05-01 08:56 -31.98283 152.15438 38936 ft 457 kts 12°
2026-05-01 08:57 -31.93315 152.16897 38946 ft 458 kts 12°
2026-05-01 08:57 -31.87403 152.18630 38941 ft 458 kts 12°
2026-05-01 08:58 -31.81392 152.20390 38938 ft 458 kts 12°
2026-05-01 08:58 -31.75204 152.22199 38932 ft 458 kts 11°
2026-05-01 08:59 -31.69518 152.23859 38944 ft 459 kts 11°
2026-05-01 08:59 -31.63667 152.25566 38947 ft 457 kts 11°
2026-05-01 09:00 -31.57943 152.27233 38939 ft 459 kts 11°
2026-05-01 09:00 -31.55577 152.27921 39043 ft 459 kts 11°
2026-05-01 09:00 -31.53091 152.28644 39217 ft 459 kts 11°
2026-05-01 09:01 -31.49913 152.29568 39371 ft 460 kts 11°
2026-05-01 09:01 -31.47050 152.30400 39398 ft 460 kts 11°
2026-05-01 09:01 -31.41285 152.32073 39395 ft 459 kts 11°
2026-05-01 09:02 -31.35078 152.33871 39401 ft 459 kts 11°
2026-05-01 09:02 -31.29873 152.35378 39392 ft 459 kts 11°
2026-05-01 09:03 -31.23667 152.37172 39390 ft 459 kts 11°
2026-05-01 09:03 -31.17987 152.38812 39386 ft 459 kts 11°
2026-05-01 09:04 -31.11818 152.40590 39387 ft 459 kts 11°
2026-05-01 09:04 -31.06220 152.42203 39376 ft 459 kts 11°
2026-05-01 09:05 -31.00127 152.43955 39386 ft 459 kts 11°
2026-05-01 09:05 -30.96089 152.45115 39387 ft 459 kts 11°
2026-05-01 09:06 -30.91152 152.46532 39350 ft 461 kts 11°
2026-05-01 09:06 -30.85073 152.48275 39368 ft 460 kts 11°
2026-05-01 09:07 -30.79339 152.49917 39373 ft 459 kts 11°
2026-05-01 09:07 -30.73133 152.51691 39373 ft 458 kts 11°
2026-05-01 09:08 -30.67373 152.53336 39377 ft 458 kts 11°
2026-05-01 09:08 -30.61179 152.55102 39369 ft 459 kts 11°
2026-05-01 09:09 -30.55196 152.56806 39373 ft 458 kts 11°
2026-05-01 09:09 -30.49010 152.58566 39373 ft 458 kts 10°
2026-05-01 09:10 -30.43408 152.60158 39373 ft 458 kts 11°
2026-05-01 09:10 -30.37222 152.61913 39375 ft 458 kts 11°
2026-05-01 09:11 -30.31973 152.63401 39366 ft 458 kts 11°
2026-05-01 09:11 -30.25890 152.65123 39367 ft 458 kts 11°
2026-05-01 09:12 -30.20931 152.66525 39364 ft 458 kts 11°
2026-05-01 09:12 -30.14800 152.68256 39363 ft 458 kts 10°
2026-05-01 09:13 -30.09180 152.69842 39353 ft 458 kts 10°
2026-05-01 09:13 -30.03301 152.71498 39346 ft 457 kts 10°
2026-05-01 09:14 -29.97449 152.73145 39351 ft 457 kts 10°
2026-05-01 09:14 -29.91602 152.74788 39347 ft 457 kts 10°
2026-05-01 09:15 -29.85438 152.76518 39346 ft 457 kts 10°
2026-05-01 09:15 -29.80186 152.77991 39338 ft 457 kts 10°
2026-05-01 09:16 -29.74035 152.79714 39333 ft 457 kts 10°
2026-05-01 09:17 -29.65111 152.82209 39315 ft 457 kts 10°
2026-05-01 09:17 -29.56172 152.84704 39331 ft 456 kts 10°
2026-05-01 09:18 -29.47563 152.87103 39328 ft 456 kts 10°
2026-05-01 09:19 -29.38307 152.89677 39275 ft 455 kts
2026-05-01 09:19 -29.35665 152.90412 38993 ft 446 kts
2026-05-01 09:20 -29.29843 152.92034 38346 ft 421 kts
2026-05-01 09:20 -29.24321 152.93565 37450 ft 406 kts
2026-05-01 09:21 -29.19135 152.94999 36530 ft 395 kts 10°
2026-05-01 09:21 -29.16549 152.95714 36045 ft 390 kts 10°
2026-05-01 09:21 -29.11556 152.97094 35164 ft 381 kts 10°
2026-05-01 09:22 -29.06470 152.98497 34237 ft 373 kts 10°
2026-05-01 09:22 -29.01903 152.99757 33294 ft 366 kts 10°
2026-05-01 09:23 -28.99440 153.00436 32807 ft 362 kts 11°
2026-05-01 09:23 -28.94592 153.01772 31838 ft 355 kts 11°
2026-05-01 09:24 -28.90039 153.03025 30955 ft 348 kts 11°
2026-05-01 09:24 -28.87822 153.03635 30537 ft 346 kts 11°
2026-05-01 09:24 -28.83484 153.04827 29619 ft 339 kts 11°
2026-05-01 09:25 -28.78973 153.06066 28692 ft 332 kts 11°
2026-05-01 09:25 -28.74847 153.07199 27875 ft 325 kts 12°
2026-05-01 09:26 -28.72903 153.07732 27523 ft 322 kts 12°
2026-05-01 09:26 -28.68612 153.08908 26931 ft 317 kts 12°
2026-05-01 09:26 -28.66715 153.09427 26666 ft 315 kts 12°
2026-05-01 09:27 -28.62831 153.10490 26081 ft 314 kts 12°
2026-05-01 09:27 -28.60745 153.11061 25804 ft 311 kts 12°
2026-05-01 09:27 -28.58656 153.11632 25525 ft 309 kts 13°
2026-05-01 09:28 -28.56789 153.12143 25270 ft 307 kts 13°
2026-05-01 09:28 -28.54747 153.12701 24977 ft 306 kts 13°
2026-05-01 09:28 -28.52683 153.13265 24704 ft 304 kts 13°
2026-05-01 09:28 -28.50666 153.13815 24455 ft 302 kts 13°
2026-05-01 09:29 -28.46829 153.14863 23953 ft 298 kts 13°
2026-05-01 09:29 -28.44817 153.15412 23627 ft 297 kts 13°
2026-05-01 09:30 -28.41076 153.16432 23020 ft 295 kts 14°
2026-05-01 09:30 -28.39118 153.16965 22672 ft 295 kts 14°
2026-05-01 09:30 -28.35169 153.18040 22094 ft 290 kts 14°
2026-05-01 09:31 -28.33421 153.18516 21864 ft 287 kts 15°
2026-05-01 09:31 -28.32766 153.18694 21766 ft 287 kts 15°